Weather History for Sayun, Yemen

Change the Weather History Date:

Saturday, February 16, 2013

  Actual Average Record
Temperature  
Mean Temperature 68 °F -  
Max Temperature 86 °F - - ()
Min Temperature 50 °F - - ()
Cooling Degree Days 3    
Growing Degree Days 18 (Base 50)    
Moisture  
Dew Point 22 °F    
Average Humidity 21    
Maximum Humidity 40    
Minimum Humidity 5    
Precipitation  
Precipitation 0.00 in - - ()
Sea Level Pressure  
Sea Level Pressure 30.03 in    
Wind  
Wind Speed 2 mph ()    
Max Wind Speed 7 mph    
Max Gust Speed -    
T = Trace of Precipitation, MM = Missing Value Source: Averaged Metar Reports

Daily Weather History Graph

Daily Weather History Graph

Search for Another Location

Airport:

Trip Planner

Search our weather history database for the weather conditions in past years. The results will help you decide how hot, cold, wet, or windy it might be!

Date:

Astronomy

Feb. 16, 2013 Rise Set
Actual Time 6:09 AM AST 5:48 PM AST
Civil Twilight 5:47 AM AST 6:10 PM AST
Nautical Twilight 5:22 AM AST 6:35 PM AST
Astronomical Twilight 4:57 AM AST 7:00 PM AST
Moon 10:12 AM AST (2/16) 11:15 PM AST (2/16)
Length of Visible Light 12h 22m
Length of Day
11h 38m
Waxing Crescent, 36% of the Moon is Illuminated
Feb 16
Waxing Crescent
Feb 17
First Quarter
Feb 25
Full
Mar 5
Last Quarter
Mar 11
New

Hourly Weather History & Observations

Time (AST) Temp. Dew Point Humidity Pressure Visibility Wind Dir Wind Speed Gust Speed Precip Events Conditions
12:00 AM 66.2 °F 28.4 °F 24% 30.01 in - ENE 5.8 mph - N/A   Clear
1:00 AM 64.4 °F 28.4 °F 26% 30.01 in - Calm Calm - N/A   Clear
2:00 AM 62.6 °F 26.6 °F 26% 30.04 in - Calm Calm - N/A   Clear
3:00 AM 59.0 °F 26.6 °F 29% 30.04 in - Calm Calm - N/A   Clear
4:00 AM 59.0 °F 24.8 °F 27% 30.04 in - Calm Calm - N/A   Clear
5:00 AM 53.6 °F 26.6 °F 35% 30.01 in - Calm Calm - N/A   Clear
6:00 AM 51.8 °F 26.6 °F 38% 30.04 in - Calm Calm - N/A   Clear
7:00 AM 50.0 °F 26.6 °F 40% 30.06 in - Calm Calm - N/A   Clear
8:00 AM 59.0 °F 33.8 °F 39% 30.09 in - Calm Calm - N/A   Clear
9:00 AM 71.6 °F 41.0 °F 33% 30.12 in - Calm Calm - N/A   Clear
10:00 AM 75.2 °F 23.0 °F 14% 30.12 in - Calm Calm - N/A   Clear
11:00 AM 78.8 °F 23.0 °F 13% 30.09 in - East 4.6 mph - N/A   Clear
12:00 PM 80.6 °F 19.4 °F 10% 30.06 in - ENE 5.8 mph - N/A   Clear
1:00 PM 82.4 °F 19.4 °F 10% 30.04 in - ESE 6.9 mph - N/A   Clear
3:00 PM 86.0 °F 6.8 °F 5% 29.98 in - East 5.8 mph - N/A   Clear
4:00 PM 86.0 °F 6.8 °F 5% 29.98 in - East 5.8 mph - N/A   Clear
5:00 PM 86.0 °F 6.8 °F 5% 29.98 in - Calm Calm - N/A   Clear
6:00 PM 80.6 °F 14.0 °F 8% 29.98 in - Calm Calm - N/A   Clear
7:00 PM 75.2 °F 19.4 °F 12% 29.98 in - NE 4.6 mph - N/A   Clear
8:00 PM 69.8 °F 15.8 °F 13% 29.98 in - NNE 5.8 mph - N/A   Clear
9:00 PM 64.4 °F 19.4 °F 18% 30.01 in - ENE 5.8 mph - N/A   Clear
10:00 PM 59.0 °F 23.0 °F 25% 30.01 in - ESE 4.6 mph - N/A   Clear
11:00 PM 57.2 °F 21.2 °F 25% 30.01 in - East 3.5 mph - N/A   Clear